Champaign, IL

12:57 PM CDT on July 23, 2017 (GMT -0500)
Univ Of Illinois-Willard

Weather History for KCMI - August, 2013

Change the Weather History Date:

Sunday, August 18, 2013

  Actual Average Record
Temperature  
Mean Temperature 72 °F 72 °F  
Max Temperature 83 °F 83 °F 89 °F (2011)
Min Temperature 61 °F 62 °F 33 °F (1996)
Degree Days  
Heating Degree Days 0 0  
Month to date heating degree days 7 0  
Since 1 June heating degree days 28 19  
Since 1 July heating degree days 15 2  
Cooling Degree Days 7 7  
Month to date cooling degree days 99 143  
Year to date cooling degree days 700 740  
Since 1 June cooling degree days 568 648  
Growing Degree Days 22 (Base 50)    
Moisture  
Dew Point 60 °F    
Average Humidity 70    
Maximum Humidity 93    
Minimum Humidity 47    
Precipitation  
Precipitation 0.00 in 0.13 in 1.76 in (2015)
Month to date precipitation 0.08 1.80  
Year to date precipitation 24.04 25.47  
Sea Level Pressure  
Sea Level Pressure 30.14 in    
Wind  
Wind Speed 3 mph (ENE)    
Max Wind Speed 13 mph    
Max Gust Speed 37 mph    
Visibility 10 miles    
Events      
T = Trace of Precipitation, MM = Missing Value Source: NWS Daily Summary

Daily Weather History Graph

Daily Weather History Graph

Search for Another Location

Airport or City:

Trip Planner

Search our weather history database for the weather conditions in past years. The results will help you decide how hot, cold, wet, or windy it might be!

Date:

Astronomy

Aug. 18, 2013 Rise Set
Actual Time 6:07 AM CDT 7:45 PM CDT
Civil Twilight 5:38 AM CDT 8:13 PM CDT
Nautical Twilight 5:04 AM CDT 8:48 PM CDT
Astronomical Twilight 4:27 AM CDT 9:25 PM CDT
Moon 5:51 PM CDT (8/18) 3:16 AM CDT (8/18)
Length of Visible Light 14h 34m
Length of Day
13h 37m
Waxing Gibbous, 92% of the Moon is Illuminated
Aug 18
Waxing Gibbous
Aug 20
Full
Aug 28
Last Quarter
Sep 5
New
Sep 12
First Quarter

Hourly Weather History & Observations

Time (CDT) Temp. Heat Index Dew Point Humidity Pressure Visibility Wind Dir Wind Speed Gust Speed Precip Events Conditions
12:53 AM 64.9 °F - 57.9 °F 78% 30.15 in 10.0 mi NE 5.8 mph - N/A   Clear
1:53 AM 63.0 °F - 57.0 °F 81% 30.14 in 10.0 mi NE 6.9 mph - N/A   Clear
2:31 AM 62.6 °F - 57.2 °F 82% 30.15 in 10.0 mi NE 6.9 mph - N/A   Partly Cloudy
2:53 AM 64.0 °F - 55.9 °F 75% 30.14 in 10.0 mi NE 6.9 mph - N/A   Partly Cloudy
3:53 AM 64.0 °F - 55.9 °F 75% 30.13 in 10.0 mi NE 5.8 mph - N/A   Clear
4:53 AM 63.0 °F - 55.9 °F 78% 30.14 in 10.0 mi ENE 4.6 mph - N/A   Clear
5:53 AM 62.1 °F - 55.9 °F 80% 30.15 in 9.0 mi NE 4.6 mph - N/A   Clear
6:53 AM 62.1 °F - 57.0 °F 84% 30.17 in 9.0 mi NE 4.6 mph - N/A   Clear
7:53 AM 64.0 °F - 57.9 °F 80% 30.19 in 9.0 mi ENE 4.6 mph - N/A   Clear
8:53 AM 68.0 °F - 60.1 °F 76% 30.19 in 10.0 mi Variable 3.5 mph - N/A   Clear
9:53 AM 72.0 °F - 62.1 °F 71% 30.19 in 10.0 mi East 3.5 mph - N/A   Clear
10:53 AM 77.0 °F - 62.1 °F 60% 30.18 in 10.0 mi Variable 3.5 mph - N/A   Clear
11:53 AM 79.0 °F - 62.1 °F 56% 30.17 in 10.0 mi Calm Calm - N/A   Clear
12:53 PM 81.0 °F 81.9 °F 62.1 °F 52% 30.16 in 10.0 mi East 9.2 mph 36.8 mph N/A   Clear
1:53 PM 81.0 °F 81.6 °F 60.1 °F 49% 30.14 in 10.0 mi Calm Calm - N/A   Partly Cloudy
2:53 PM 82.0 °F 83.0 °F 62.1 °F 51% 30.13 in 10.0 mi Variable 4.6 mph - N/A   Scattered Clouds
3:53 PM 82.9 °F 83.3 °F 61.0 °F 47% 30.12 in 10.0 mi Calm Calm - N/A   Scattered Clouds
4:53 PM 82.0 °F 82.7 °F 61.0 °F 49% 30.11 in 10.0 mi Calm Calm - N/A   Clear
5:53 PM 82.0 °F 82.7 °F 61.0 °F 49% 30.10 in 10.0 mi Calm Calm - N/A   Clear
6:53 PM 79.0 °F - 66.0 °F 64% 30.10 in 10.0 mi Calm Calm - N/A   Clear
7:53 PM 71.1 °F - 66.0 °F 84% 30.12 in 10.0 mi Calm Calm - N/A   Clear
8:53 PM 68.0 °F - 64.0 °F 87% 30.12 in 10.0 mi Calm Calm - 0.00 in   Clear
9:53 PM 64.9 °F - 62.1 °F 90% 30.13 in 9.0 mi Calm Calm - N/A   Clear
10:53 PM 64.0 °F - 62.1 °F 93% 30.13 in 6.0 mi Calm Calm - N/A   Clear
11:53 PM 64.0 °F - 61.0 °F 90% 30.13 in 7.0 mi Calm Calm - N/A   Clear